Location: Escondida
(34.1015°N, 106.8964°W)
Time: 06:35:34
(UTC+00:00)

Cosmos 2058 Rocket - Pass Details

Date: 11 December 2025
Orbit: 603 x 633 km, 82.5° (Epoch: 13 January)

Event Time Altitude Azimuth Distance (km) Brightness Sun altitude
Exits shadow 13:18:47 - 340° (NNW) 2,805 6.0 -9.2°
Reaches altitude 10° 13:20:58 10° 330° (NNW) 1,990 5.2 -8.8°
Maximum altitude 13:24:46 29° 270° (W) 1,125 3.9 -8.1°
Drops below altitude 10° 13:28:33 10° 210° (SSW) 1,962 5.6 -7.4°
Sets 13:30:57 0° 199° (SSW) 2,857 6.5 -6.9°
